STARLINK-2158 (47744 NORAD) Tracking and Keplerian Element Data

This shows tracking and keplerian element data for the satellite.

Feedback or suggestion? Click here.




ElementValue
Catalog47744
NameSTARLINK-2158
Epoch Orbit175
Epoch Day170.58334491
Epoch Year2021
RAAN21.418
Inclination53.0529
Eccentricity0.0001578
Argument of Perigee90.1002
Mean Anonmoly39.9953
Mean Motion15.06389202
Decay Rate0.00014004
L11 47744U 21017Y 21170.58334491 .00014004 00000-0 95745-3 0 9997
L22 47744 53.0529 21.4180 0001578 90.1002 39.9953 15.06389202 1758

Live tracking and technical data element details for STARLINK-2158 (NORAD 47744). STARLINK-2158 can be tracked NOW for your location showing map with azimuth and elevation plus other details from your city location.

Track the satellite on the map from your city or location and see movement details for azimuth, elevation, latitude, longitude, range, height, and movement on the map or in text.







IsCatalogInMostPopularTable: catalog: 47744, numindb: 44
Update: records affected: 1



GetName: 47744 STARLINK-2158

Hit Count: updated at: Mon, 21 Jun 2021 04:56:00 GMT